Pagina principale
METAR-TAF:

METAR-TAF

Aeroporti :

Trieste, Italia

latitudine: 45-39N, longitudine: 013-45E, altezza: 8 m

Osservazione

Il bollettino è stato emesso 55 minuti fa, alle 10:55 UTC
Vento 6 kt da nord-est
Temperature 14°C
Umidità 47%
Pressione 1021 hPa
Visibilità 10 km o più
Nubi sparse ad un'altezza di 4500 ft

METAR: LIVT 261055Z 04006KT 9999 SCT045 14/03 Q1021 RMK BKN SCT080 QUK 2 QUL 0 VIS MAR 20 KM VIS MIN 9999

Ora: 13:50 (11:50 UTC)


TAF: mancante

Osservazioni e previsioni meteorologiche di più di 4000 aeroporti (messaggi METAR e TAF).

Le stazioni disponibili sono rappresentate dai dischi gialli e rossi sulla carta.

Puntare il mouse per vedere il nome della stazione.

Clicca sopra per visualizzare le osservazioni e previsioni meteorologiche.

Per cambiare la mappa : fare clic sui pulsanti verdi con una croce nera per ingrandire, il pulsante verde con un trattino per diminuire, o sulla freccia verde per le mappe adiacenti.


METAR-TAF: